Notices

What's New in latest Release from April 7th, 2021:

- Updated Glossary, including Speed of Maximum Gust, and Total Hourly Precipitation

- Updated national and regional climate services offices contacts and prices information

- Addition of station inventory lists for 1981-2010, 1971-2000, and 1961-1990 Normals.

If you haven't already, please take our survey and provide feedback about our website: https://eccc.sondage-survey.ca/f/LanguageSelection.aspx?s=442ca660-fcf1-47c0-95a9-59707d6fd709

Hourly Data Report for October 13, 2006

TORONTO CITY
ONTARIO

43°40'00.000" N
79°24'00.000" W
112.50 m
6158355
71508
XTO

Download Data

Hourly Data (October 2006)
Hourly Data Report for October 13, 2006
TIME
LST
Temp Definition
°C
Dew Point Definition
°C
Rel Hum Definition
%
Precip. Amount Definition
mm

Wind Dir Definition
10's deg

Wind Spd Definition
km/h
Visibility Definition
km
Stn Press Definition
kPa
Hmdx Definition


Wind Chill Definition


Weather Definition


00:00 2.3 -3.8 64   LegendMM LegendMM   99.09     LegendNANA
01:00 2.5 -3.5 65   LegendMM LegendMM   99.09     LegendNANA
02:00 2.2 -3.1 68   LegendMM LegendMM   99.10     LegendNANA
03:00 1.8 -3.0 70   LegendMM LegendMM   99.07     LegendNANA
04:00 1.9 -2.8 71   LegendMM LegendMM   99.06     LegendNANA
05:00 1.8 -2.6 73   LegendMM LegendMM   99.08     LegendNANA
06:00 2.8 -2.1 70   LegendMM LegendMM   99.07     LegendNANA
07:00 3.3 -2.1 68   LegendMM LegendMM   99.07     LegendNANA
08:00 4.1 -2.0 64   LegendMM LegendMM   99.05     LegendNANA
09:00 5.3 -2.4 58   LegendMM LegendMM   99.02     LegendNANA
10:00 5.9 -2.1 56   LegendMM LegendMM   98.99     LegendNANA
11:00 6.8 -0.2 61   LegendMM LegendMM   98.95     LegendNANA
12:00 6.6 1.9 72   LegendMM LegendMM   98.89     LegendNANA
13:00 7.2 1.6 68   LegendMM LegendMM   98.81     LegendNANA
14:00 4.2 2.1 86   LegendMM LegendMM   98.96     LegendNANA
15:00 4.0 2.1 87   LegendMM LegendMM   98.98     LegendNANA
16:00 5.2 2.4 82   LegendMM LegendMM   98.96     LegendNANA
17:00 6.2 0.3 66   LegendMM LegendMM   98.98     LegendNANA
18:00 6.6 -0.8 59   LegendMM LegendMM   99.02     LegendNANA
19:00 6.8 -1.8 54   LegendMM LegendMM   99.07     LegendNANA
20:00 7.0 -0.5 59   LegendMM LegendMM   99.10     LegendNANA
21:00 6.9 0.3 63   LegendMM LegendMM   99.09     LegendNANA
22:00 6.8 0.7 65   LegendMM LegendMM   99.06     LegendNANA
23:00 6.7 1.3 68   LegendMM LegendMM   99.03     LegendNANA

Notes on Data Quality.

Legend

  • E = Estimated
  • M = Missing
  • NA = Not Available*
  • [empty] = Indicates an unobserved value
Date modified: